Time,TemperatureF,DewpointF,PressureIn,WindDirection,WindDirectionDegrees,WindSpeedMPH,WindSpeedGustMPH,Humidity,HourlyPrecipIn,Conditions,Clouds,dailyrainin,SoftwareType,DateUTC
2013-07-24 00:14:00,60.0,54.5,30.08,East,90,0.0,0.0,82,0.00,,,-99.99,Weather View 32 v60,2013-07-24 05:14:00,
2013-07-24 00:26:00,60.0,54.5,30.08,East,90,0.0,0.0,82,0.00,,,-99.99,Weather View 32 v60,2013-07-24 05:26:00,
2013-07-24 00:44:00,59.0,52.5,30.10,East,90,0.0,0.0,79,0.00,,,-99.99,Weather View 32 v60,2013-07-24 05:44:00,
2013-07-24 00:59:00,59.0,52.1,30.10,East,90,0.0,0.0,78,0.00,,,-99.99,Weather View 32 v60,2013-07-24 05:59:00,
2013-07-24 01:44:00,58.0,49.4,30.09,East,90,0.0,0.0,73,0.00,,,-99.99,Weather View 32 v60,2013-07-24 06:44:00,
2013-07-24 01:59:00,58.0,49.4,30.09,East,90,0.0,0.0,73,0.00,,,-99.99,Weather View 32 v60,2013-07-24 06:59:00,
2013-07-24 02:14:00,58.0,49.4,30.10,East,90,0.0,0.0,73,0.00,,,-99.99,Weather View 32 v60,2013-07-24 07:14:00,
2013-07-24 02:27:00,58.0,49.4,30.10,East,90,0.0,0.0,73,0.00,,,-99.99,Weather View 32 v60,2013-07-24 07:27:00,
2013-07-24 02:44:00,57.0,48.8,30.10,East,90,0.0,0.0,74,0.00,,,-99.99,Weather View 32 v60,2013-07-24 07:44:00,
2013-07-24 02:59:00,56.0,47.8,30.11,East,90,0.0,0.0,74,0.00,,,-99.99,Weather View 32 v60,2013-07-24 07:59:00,
2013-07-24 03:14:00,56.0,47.4,30.12,East,90,0.0,0.0,73,0.00,,,-99.99,Weather View 32 v60,2013-07-24 08:14:00,
2013-07-24 03:28:00,56.0,47.4,30.12,East,90,0.0,0.0,73,0.00,,,-99.99,Weather View 32 v60,2013-07-24 08:28:00,
2013-07-24 03:44:00,55.0,45.0,30.12,East,90,0.0,0.0,69,0.00,,,-99.99,Weather View 32 v60,2013-07-24 08:44:00,
2013-07-24 03:59:00,55.0,45.8,30.12,East,90,0.0,0.0,71,0.00,,,-99.99,Weather View 32 v60,2013-07-24 08:59:00,
2013-07-24 04:14:00,55.0,45.8,30.12,East,90,0.0,0.0,71,0.00,,,-99.99,Weather View 32 v60,2013-07-24 09:14:00,
2013-07-24 04:28:00,55.0,45.8,30.12,East,90,0.0,0.0,71,0.00,,,-99.99,Weather View 32 v60,2013-07-24 09:28:00,
2013-07-24 04:44:00,54.0,44.0,30.12,East,90,0.0,0.0,69,0.00,,,-99.99,Weather View 32 v60,2013-07-24 09:44:00,
2013-07-24 04:59:00,54.0,44.0,30.13,East,90,0.0,0.0,69,0.00,,,-99.99,Weather View 32 v60,2013-07-24 09:59:00,
2013-07-24 05:14:00,54.0,44.0,30.13,East,90,0.0,0.0,69,0.00,,,-99.99,Weather View 32 v60,2013-07-24 10:14:00,
2013-07-24 05:29:00,54.0,44.0,30.13,East,90,0.0,0.0,69,0.00,,,-99.99,Weather View 32 v60,2013-07-24 10:29:00,
2013-07-24 05:44:00,53.0,42.7,30.14,East,90,0.0,0.0,68,0.00,,,-99.99,Weather View 32 v60,2013-07-24 10:44:00,
2013-07-24 05:59:00,53.0,42.3,30.14,East,90,0.0,0.0,67,0.00,,,-99.99,Weather View 32 v60,2013-07-24 10:59:00,
2013-07-24 06:29:00,53.0,42.3,30.16,East,90,0.0,0.0,67,0.00,,,-99.99,Weather View 32 v60,2013-07-24 11:29:00,
2013-07-24 06:44:00,55.0,44.6,30.14,ESE,112,0.0,0.0,68,0.00,,,-99.99,Weather View 32 v60,2013-07-24 11:44:00,
2013-07-24 06:59:00,56.0,46.0,30.15,ESE,112,0.0,0.0,69,0.00,,,-99.99,Weather View 32 v60,2013-07-24 11:59:00,
2013-07-24 07:14:00,58.0,47.9,30.14,ESE,112,0.0,0.0,69,0.00,,,-99.99,Weather View 32 v60,2013-07-24 12:14:00,
2013-07-24 07:29:00,60.0,49.8,30.13,ESE,112,0.0,0.0,69,0.00,,,-99.99,Weather View 32 v60,2013-07-24 12:29:00,
2013-07-24 07:44:00,61.0,53.0,30.13,ESE,112,0.0,0.0,75,0.00,,,-99.99,Weather View 32 v60,2013-07-24 12:44:00,
2013-07-24 07:59:00,62.0,57.1,30.12,ESE,112,0.0,0.0,84,0.00,,,-99.99,Weather View 32 v60,2013-07-24 12:59:00,
2013-07-24 08:14:00,66.0,61.0,30.11,ESE,112,0.0,0.0,84,0.00,,,-99.99,Weather View 32 v60,2013-07-24 13:14:00,
2013-07-24 08:29:00,69.0,61.1,30.09,East,90,0.0,0.0,76,0.00,,,-99.99,Weather View 32 v60,2013-07-24 13:29:00,
2013-07-24 08:44:00,70.0,62.1,30.09,East,90,0.0,0.0,76,0.00,,,-99.99,Weather View 32 v60,2013-07-24 13:44:00,
2013-07-24 08:59:00,73.0,62.2,30.08,SW,225,0.0,0.0,69,0.00,,,-99.99,Weather View 32 v60,2013-07-24 13:59:00,
2013-07-24 09:14:00,75.0,60.1,30.07,NNW,337,0.0,6.0,60,0.00,,,-99.99,Weather View 32 v60,2013-07-24 14:14:00,
2013-07-24 09:29:00,76.0,60.1,30.07,NNW,337,0.0,6.0,58,0.00,,,-99.99,Weather View 32 v60,2013-07-24 14:29:00,
2013-07-24 09:44:00,75.0,60.1,30.08,NW,315,4.0,6.0,60,0.00,,,-99.99,Weather View 32 v60,2013-07-24 14:44:00,
2013-07-24 09:59:00,74.0,59.7,30.08,NW,315,0.0,6.0,61,0.00,,,-99.99,Weather View 32 v60,2013-07-24 14:59:00,
2013-07-24 10:14:00,74.0,59.7,30.08,West,270,0.0,6.0,61,0.00,,,-99.99,Weather View 32 v60,2013-07-24 15:14:00,
2013-07-24 10:29:00,76.0,61.1,30.07,NW,315,0.0,6.0,60,0.00,,,-99.99,Weather View 32 v60,2013-07-24 15:29:00,
2013-07-24 10:44:00,76.0,60.1,30.06,North,360,0.0,7.0,58,0.00,,,-99.99,Weather View 32 v60,2013-07-24 15:44:00,
2013-07-24 11:14:00,78.0,59.4,30.06,NNW,337,1.0,7.0,53,0.00,,,-99.99,Weather View 32 v60,2013-07-24 16:14:00,
2013-07-24 11:29:00,79.0,59.3,30.05,WNW,292,0.0,7.0,51,0.00,,,-99.99,Weather View 32 v60,2013-07-24 16:29:00,
2013-07-24 11:44:00,78.0,59.4,30.05,NNW,337,5.0,7.0,53,0.00,,,-99.99,Weather View 32 v60,2013-07-24 16:44:00,
2013-07-24 12:14:00,78.0,57.8,30.06,NW,315,5.0,11.0,50,0.00,,,-99.99,Weather View 32 v60,2013-07-24 17:14:00,
2013-07-24 12:29:00,80.0,60.2,30.05,South,180,0.0,11.0,51,0.00,,,-99.99,Weather View 32 v60,2013-07-24 17:29:00,
2013-07-24 12:44:00,81.0,59.4,30.03,NW,315,3.0,11.0,48,0.00,,,-99.99,Weather View 32 v60,2013-07-24 17:44:00,
2013-07-24 12:59:00,82.0,59.7,30.03,West,270,0.0,11.0,47,0.00,,,-99.99,Weather View 32 v60,2013-07-24 17:59:00,
2013-07-24 13:14:00,82.0,59.7,30.03,West,270,0.0,10.0,47,0.00,,,-99.99,Weather View 32 v60,2013-07-24 18:14:00,
2013-07-24 13:29:00,82.0,59.7,30.02,WNW,292,0.0,10.0,47,0.00,,,-99.99,Weather View 32 v60,2013-07-24 18:29:00,
2013-07-24 13:59:00,83.0,60.0,30.01,WNW,292,0.0,9.0,46,0.00,,,-99.99,Weather View 32 v60,2013-07-24 18:59:00,
2013-07-24 14:14:00,82.0,57.9,30.02,East,90,0.0,8.0,44,0.00,,,-99.99,Weather View 32 v60,2013-07-24 19:14:00,
2013-07-24 14:29:00,80.0,59.1,30.02,ESE,112,0.0,7.0,49,0.00,,,-99.99,Weather View 32 v60,2013-07-24 19:29:00,
2013-07-24 14:44:00,83.0,60.0,30.01,WNW,292,0.0,8.0,46,0.00,,,-99.99,Weather View 32 v60,2013-07-24 19:44:00,
2013-07-24 14:59:00,85.0,59.3,29.99,SSE,157,0.0,8.0,42,0.00,,,-99.99,Weather View 32 v60,2013-07-24 19:59:00,
2013-07-24 15:29:00,88.0,59.1,29.97,ESE,112,0.0,8.0,38,0.00,,,-99.99,Weather View 32 v60,2013-07-24 20:29:00,
2013-07-24 15:34:00,88.0,59.1,29.97,ESE,112,0.0,8.0,38,0.00,,,-99.99,Weather View 32 v60,2013-07-24 20:34:00,
2013-07-24 15:44:00,89.0,60.0,29.96,East,90,0.0,5.0,38,0.00,,,-99.99,Weather View 32 v60,2013-07-24 20:44:00,
2013-07-24 16:14:00,87.0,59.0,29.97,South,180,0.0,0.0,39,0.00,,,-99.99,Weather View 32 v60,2013-07-24 21:14:00,
2013-07-24 16:29:00,87.0,61.0,29.96,ESE,112,0.0,0.0,42,0.00,,,-99.99,Weather View 32 v60,2013-07-24 21:29:00,
2013-07-24 16:35:00,87.0,61.0,29.96,ESE,112,0.0,0.0,42,0.00,,,-99.99,Weather View 32 v60,2013-07-24 21:35:00,
2013-07-24 16:44:00,84.0,62.1,29.97,East,90,0.0,6.0,48,0.00,,,-99.99,Weather View 32 v60,2013-07-24 21:44:00,
2013-07-24 16:59:00,82.0,60.9,29.98,East,90,2.0,6.0,49,0.00,,,-99.99,Weather View 32 v60,2013-07-24 21:59:00,
2013-07-24 17:14:00,81.0,61.7,29.98,ESE,112,0.0,6.0,52,0.00,,,-99.99,Weather View 32 v60,2013-07-24 22:14:00,
2013-07-24 17:29:00,80.0,60.2,29.99,ESE,112,0.0,6.0,51,0.00,,,-99.99,Weather View 32 v60,2013-07-24 22:29:00,
2013-07-24 17:36:00,80.0,60.2,29.99,ESE,112,0.0,6.0,51,0.00,,,-99.99,Weather View 32 v60,2013-07-24 22:36:00,
2013-07-24 17:59:00,79.0,60.9,29.98,East,90,4.0,6.0,54,0.00,,,-99.99,Weather View 32 v60,2013-07-24 22:59:00,
2013-07-24 18:44:00,79.0,64.3,29.99,ESE,112,0.0,5.0,61,0.00,,,-99.99,Weather View 32 v60,2013-07-24 23:44:00,
2013-07-24 19:14:00,79.0,60.3,29.99,East,90,0.0,0.0,53,0.00,,,-99.99,Weather View 32 v60,2013-07-25 00:14:00,
2013-07-24 19:29:00,79.0,61.4,29.99,East,90,0.0,0.0,55,0.00,,,-99.99,Weather View 32 v60,2013-07-25 00:29:00,
2013-07-24 19:37:00,79.0,61.4,29.99,East,90,0.0,0.0,55,0.00,,,-99.99,Weather View 32 v60,2013-07-25 00:37:00,
2013-07-24 19:44:00,78.0,62.0,29.99,East,90,3.0,6.0,58,0.00,,,-99.99,Weather View 32 v60,2013-07-25 00:44:00,
2013-07-24 19:59:00,77.0,61.0,29.99,SE,135,0.0,6.0,58,0.00,,,-99.99,Weather View 32 v60,2013-07-25 00:59:00,
2013-07-24 20:14:00,77.0,62.5,30.00,ESE,112,0.0,6.0,61,0.00,,,-99.99,Weather View 32 v60,2013-07-25 01:14:00,
2013-07-24 20:29:00,76.0,62.0,29.99,East,90,0.0,6.0,62,0.00,,,-99.99,Weather View 32 v60,2013-07-25 01:29:00,
2013-07-24 20:37:00,76.0,62.0,29.99,East,90,0.0,6.0,62,0.00,,,-99.99,Weather View 32 v60,2013-07-25 01:37:00,
2013-07-24 20:44:00,75.0,62.0,30.00,East,90,0.0,6.0,64,0.00,,,-99.99,Weather View 32 v60,2013-07-25 01:44:00,
2013-07-24 20:59:00,74.0,62.7,30.00,East,90,0.0,0.0,68,0.00,,,-99.99,Weather View 32 v60,2013-07-25 01:59:00,
2013-07-24 21:14:00,72.0,62.8,30.01,ENE,67,0.0,0.0,73,0.00,,,-99.99,Weather View 32 v60,2013-07-25 02:14:00,
2013-07-24 21:29:00,71.0,63.8,30.02,ENE,67,0.0,0.0,78,0.00,,,-99.99,Weather View 32 v60,2013-07-25 02:29:00,
2013-07-24 21:38:00,71.0,63.8,30.02,ENE,67,0.0,0.0,78,0.00,,,-99.99,Weather View 32 v60,2013-07-25 02:38:00,
2013-07-24 21:44:00,70.0,63.5,30.02,ENE,67,0.0,0.0,80,0.00,,,-99.99,Weather View 32 v60,2013-07-25 02:44:00,
2013-07-24 21:59:00,69.0,62.9,30.03,ENE,67,0.0,0.0,81,0.00,,,-99.99,Weather View 32 v60,2013-07-25 02:59:00,
2013-07-24 22:15:00,68.0,61.9,30.04,ENE,67,0.0,0.0,81,0.00,,,-99.99,Weather View 32 v60,2013-07-25 03:15:00,
2013-07-24 22:30:00,67.0,61.0,30.05,ENE,67,0.0,0.0,81,0.00,,,-99.99,Weather View 32 v60,2013-07-25 03:30:00,
2013-07-24 22:39:00,67.0,61.0,30.05,ENE,67,0.0,0.0,81,0.00,,,-99.99,Weather View 32 v60,2013-07-25 03:39:00,
2013-07-24 23:29:00,65.0,59.0,30.07,ENE,67,0.0,0.0,81,0.00,,,-99.99,Weather View 32 v60,2013-07-25 04:29:00,
2013-07-24 23:39:00,65.0,59.0,30.07,ENE,67,0.0,0.0,81,0.00,,,-99.99,Weather View 32 v60,2013-07-25 04:39:00,
2013-07-24 23:44:00,65.0,59.0,30.06,ENE,67,0.0,0.0,81,0.00,,,-99.99,Weather View 32 v60,2013-07-25 04:44:00,
2013-07-24 23:59:00,64.0,58.0,30.07,ENE,67,0.0,0.0,81,0.00,,,-99.99,Weather View 32 v60,2013-07-25 04:59:00,